User: anonymous   Login
Location: Knowlton
(51.2333°N, 1.2667°E)
Time: 01:12:27
(UTC+00:00)
Language:

Cosmos 2333 Rocket - Orbit

View from above orbital plane
View from above orbital plane
View from above satellite
View from above satellite

Ground track
Ground track

The orbit data is extracted from the following two-line orbital elements,

1 24298U 96051B   21174.53195190 -.00000120  00000-0 -38391-4 0  9997
2 24298  70.8281 208.1246 0015773 171.2721 188.8676 14.12438424278756
Epoch (UTC): 23 June 2021 12:46:00
Eccentricity: 0.0015773
inclination: 70.8281°
perigee height: 839 km
apogee height: 862 km
right ascension of ascending node: 208.1246°
argument of perigee: 171.2721°
revolutions per day: 14.12438424
mean anomaly at epoch: 188.8676°
orbit number at epoch: 27875

The dashed part of the orbit path shows where the satellite is in the earth's shadow,  

DLR